Regional Weather Roundup
Issued by NWS New Orleans/Baton Rouge, LA

Home | Current Version | Previous Version | Text Only | Print | Product List | Glossary On
Versions: 1 2 3 4 5 6 7 8 9 10 11 12 13 14 15 16 17 18 19 20 21 22 23 24 25 26 27 28 29 30 31 32 33 34 35 36 37 38 39 40 41 42 43 44 45 46 47 48 49 50
000
ASUS44 KLIX 302205
RWRLIX
NEW ORLEANS REGIONAL WEATHER ROUNDUP
NATIONAL WEATHER SERVICE NEW ORLEANS LA
400 PM CST FRI JAN 30 2015

NOTE: "FAIR" INDICATES FEW OR NO CLOUDS BELOW 12,000 FEET WITH NO
      SIGNIFICANT WEATHER AND/OR OBSTRUCTIONS TO VISIBILITY.
      SKY/WX - SKY CONDITION AND SIGNIFICANT WEATHER.
      TMP - AIR TEMPERATURE.     DP    - DEWPOINT TEMPERATURE.
      RH  - RELATIVE HUMIDITY.   PRES  - PRESSURE.
      HI  - HEAT INDEX.          WCI   - WIND CHILL INDEX.

*  THESE STATIONS ARE NOT NWS OR FAA STATIONS AND ARE NOT UNDER
   NWS QUALITY CONTROL.

LAZ038-040-048-061>063-065>067-069-302300-
SOUTHEAST LOUISIANA

CITY           SKY/WX    TMP DP  RH WIND       PRES   REMARKS
N.O. AUDUBON     N/A     56  38  52 MISG        N/A
N.O. INTL ARPT PTSUNNY   57  34  41 N8        30.32F
N.O. LAKEFRONT MOSUNNY   57  41  55 W6        30.33S
N.O. DOWNTOWN* NOT AVBL
SLIDELL        MOSUNNY   62  31  31 N7        30.31S
BATON ROUGE    MOSUNNY   61  27  27 NE6       30.33S
BOOTHVILLE     PTSUNNY   54  41  61 N5        30.32S
BELLE CHASSE   PTSUNNY   58  33  39 VRB6      30.31S
BOGALUSA*        N/A     60  28  29 NE7       30.34S
GALLIANO*      MOCLDY    62  37  40 MISG      30.31S
NEW ROADS*       N/A     59  30  33 N7        30.34S
GONZALES*        N/A     62  31  30 NE5       30.32S
HAMMOND*       PTSUNNY   59  27  29 NE5       30.34S
HOUMA*         SUNNY     59  34  38 N13       30.31F
PORT FOURCHON* CLEAR     57  41  54 NE14      30.33F

$$

MSZ070-080>082-302300-
SOUTHERN MISSISSIPPI

CITY           SKY/WX    TMP DP  RH WIND       PRES   REMARKS
MCCOMB         PTSUNNY   59  28  30 N8        30.33S
GULFPORT       MOSUNNY   61  29  29 N9G18     30.30S
BILOXI         PTSUNNY   60  30  32 NE8       30.30S
PASCAGOULA     PTSUNNY   61  30  31 N10       30.30S
STENNIS ARPT*  SUNNY     61  23  23 N12       30.31

$$

COASTAL OBSERVATIONS
LAKE AND NEARSHORE STATIONS

STATION/POSITION TIME  TEMP    WIND        PRES    WAVE
                       AIR SEA DIR/SP/G            HT/PER
                 (UTC) (F)     (DEG/KT/KT) (MB)    (FT/S)
PASCAGOULA       2200   61     360/ 10/ 14 1025.4
WAVELAND YACHT   2200   59      20/ 12/ 14 1025.4
GRAND ISLE       2200   56 62   40/  8/ 11 1026.6
SOUTHWEST PASS   2200   57 47   30/ 14/ 15 1026.5
NEW CANAL        2200   55 56  300/  1/  2 1027.2
SHELL BEACH      2200   55 59   30/  5/  6 1026.5

OFFSHORE STATIONS

STATION/POSITION TIME  TEMP    WIND        PRES    WAVE
                       AIR SEA DIR/SP/G            HT/PER
                 (UTC) (F)     (DEG/KT/KT) (MB)    (FT/S)
64 S DAUPHIN ISL 2057   56 69   20/ 14/ 17 1025.9    5/ 6

$$




USA.gov is the U.S. government's official web portal to all federal, state and local government web resources and services.